Wind_Speed
3 1 2 3 4 5 6 8 8 8 9 10 13 14 15 16 18 19 21 23 22 20 19 21 20 18 18 19 19 16 16 19 20 21 23 23 23 24 25 28 30 30
4 2 3 3 4 5 6 7 7 8 8 9 12 13 14 15 17 18 19 22 23 21 18 17 17 18 17 17 17 16 16 18 18 18 21 22 22 22 23 25 27 28
3 2 3 3 4 5 7 7 7 7 7 8 10 11 12 13 15 17 17 18 20 19 17 17 16 16 17 16 16 16 18 18 16 17 19 19 19 20 21 22 23 24
4 2 3 3 4 5 6 7 7 7 7 7 8 9 11 12 13 15 15 16 17 16 14 16 16 15 16 16 16 16 17 17 16 17 18 17 18 18 20 22 22 23
6 3 3 4 5 5 6 6 7 8 9 8 8 9 10 11 12 13 13 14 16 14 13 14 15 15 16 16 16 17 19 19 18 18 17 17 18 18 18 21 23 23
8 6 4 4 5 5 5 6 7 9 10 10 9 9 10 10 11 12 12 13 13 14 13 12 13 14 15 15 15 16 18 18 18 19 18 17 17 17 19 21 22 22
8 7 6 4 3 4 4 5 7 7 9 10 10 9 10 11 12 11 12 13 12 12 12 12 12 12 13 13 14 15 16 17 17 17 17 17 17 16 17 18 19 19
8 7 6 5 3 2 2 3 5 6 7 8 9 9 9 11 12 11 12 13 12 12 12 12 12 12 12 13 13 14 16 16 17 16 16 17 16 15 15 15 15 15
8 7 7 6 5 4 3 3 3 4 6 7 8 8 9 10 11 11 12 13 13 13 13 13 13 14 14 14 14 14 14 15 16 16 16 16 16 16 15 15 14 14
8 7 7 7 7 7 6 4 3 4 5 6 7 8 9 9 10 11 13 12 12 13 14 14 14 15 16 16 16 15 15 16 16 17 17 16 16 16 14 14 14 14
7 7 7 7 7 7 7 7 6 5 5 5 7 8 8 8 9 10 11 11 12 13 13 13 14 15 16 16 17 16 16 16 16 17 18 18 17 17 15 15 15 15
6 6 7 7 7 7 8 8 8 7 7 7 9 9 9 9 10 10 10 11 11 12 13 13 13 13 14 14 15 16 16 15 15 16 17 18 18 18 18 17 16 16
8 7 6 6 7 7 7 7 8 8 8 8 9 11 11 10 10 10 10 11 11 11 11 12 12 12 12 13 13 14 15 15 15 16 16 18 19 19 19 19 18 18
8 8 7 6 6 7 7 7 7 8 9 9 9 10 11 10 10 10 9 9 11 11 11 11 12 12 13 13 14 14 15 15 16 16 17 18 18 19 20 21 21 21
7 7 7 6 6 6 6 6 7 7 8 9 9 10 10 10 11 11 9 9 10 12 12 12 12 12 12 13 14 14 15 15 16 16 17 18 18 18 20 22 23 22
6 6 6 6 5 5 5 5 6 6 6 7 8 8 9 9 10 11 10 10 10 12 12 12 13 13 13 13 13 14 15 15 16 16 17 17 17 18 19 21 23 24
6 6 6 6 5 5 5 5 6 6 6 7 7 7 8 9 10 11 11 10 11 12 12 12 13 13 13 14 14 14 15 16 17 17 17 17 18 18 18 19 22 24
5 5 5 5 5 5 5 6 6 6 7 7 8 8 9 9 10 11 11 11 11 12 12 12 13 13 13 13 13 14 15 15 16 17 18 18 19 20 19 18 20 24
4 4 4 4 5 5 6 6 7 8 8 9 9 10 10 11 11 12 13 12 12 13 13 13 14 14 14 14 14 14 14 15 16 16 17 18 19 21 21 19 21 23
3 3 3 4 5 5 6 7 8 8 9 10 10 11 12 13 13 14 14 15 15 15 15 15 15 15 16 16 16 16 16 16 16 17 17 18 19 21 20 20 21 23
1 2 3 4 5 6 7 7 8 9 10 11 12 12 13 14 15 15 16 16 16 16 16 16 16 16 16 16 16 17 17 17 17 17 18 19 20 21 20 20 22 23
1 2 4 5 6 6 7 8 9 11 12 13 13 14 14 15 15 15 15 15 15 15 15 15 15 15 15 15 15 16 16 16 16 16 17 18 20 21 20 20 22 23
2 4 5 6 6 7 8 10 11 12 13 14 14 15 16 16 15 15 15 15 14 14 14 14 13 13 13 14 14 14 15 16 16 16 17 18 20 21 20 19 21 23
4 5 7 7 7 8 10 11 13 14 14 14 15 16 16 16 15 15 15 15 15 15 15 14 14 14 14 14 15 15 16 17 17 18 19 19 21 22 22 21 21 22
6 7 8 9 9 10 12 13 14 14 14 15 16 17 16 15 15 14 14 14 14 15 16 16 16 16 16 16 17 17 18 18 19 19 20 20 21 22 23 23 22 22
9 9 10 10 11 12 13 14 14 14 15 16 16 16 16 16 16 15 15 14 14 15 16 17 18 18 18 18 19 19 19 19 19 19 20 20 21 22 22 23 23 23
Wind_Direction
341 352 328 301 293 297 290 284 280 274 267 258 253 252 253 255 256 258 262 264 265 266 264 267 272 270 263 265 269 264 255 253 254 255 257 259 258 255 252 253 255 257
348 311 284 279 277 282 280 275 279 281 272 262 256 253 256 261 262 263 264 265 269 273 274 274 277 280 281 284 290 291 283 275 268 263 263 261 259 259 259 260 259 258
324 273 257 263 269 276 273 263 270 279 273 266 261 257 259 262 263 266 268 269 271 276 282 284 282 283 287 289 292 295 295 291 284 279 279 278 276 275 274 273 270 265
319 269 249 266 268 266 263 255 258 268 269 270 269 267 270 270 268 270 272 274 278 280 280 281 281 282 284 285 284 288 290 290 288 287 291 292 289 285 280 276 274 268
339 306 267 264 264 265 260 247 247 256 263 267 267 270 276 277 276 277 277 278 283 287 284 282 283 281 282 285 284 284 286 287 287 288 293 295 293 292 287 281 278 275
354 343 314 275 258 260 257 247 248 254 260 264 265 269 274 276 276 277 278 279 284 290 287 285 287 282 281 286 287 285 284 286 288 290 292 295 298 298 293 289 288 287
353 356 348 329 288 258 249 252 259 259 261 266 268 270 274 274 274 279 283 281 283 290 289 287 288 287 288 291 292 290 289 290 292 294 294 296 301 306 305 303 298 290
347 352 348 344 337 296 259 258 266 264 263 268 268 268 274 276 276 281 288 286 286 292 294 295 295 294 295 296 294 293 293 294 296 299 299 296 298 305 313 318 314 299
343 344 339 338 341 330 307 281 272 268 264 269 271 268 274 281 282 285 290 291 293 295 296 296 295 293 293 294 294 295 294 295 298 301 302 299 299 304 308 314 317 312
335 336 335 336 340 340 336 330 311 288 273 273 276 274 283 292 289 289 294 297 298 299 298 297 294 292 294 295 295 296 295 296 297 298 300 301 302 305 305 305 305 306
329 325 326 330 335 342 348 353 342 322 305 292 287 286 293 300 295 292 297 300 302 303 303 301 297 292 292 293 293 294 295 295 295 296 298 299 301 302 302 300 297 297
338 319 313 319 328 333 341 349 346 337 329 315 309 312 314 314 310 308 308 309 310 310 310 310 307 301 295 291 290 291 293 295 296 297 297 296 296 297 298 297 294 295
346 335 318 310 313 319 327 337 338 336 332 324 320 321 322 322 319 315 317 319 317 314 314 315 315 315 310 303 297 293 291 292 292 294 296 296 296 298 299 297 292 291
340 342 339 325 314 311 315 322 326 325 325 325 325 324 325 327 322 319 324 327 320 318 320 320 320 321 319 315 312 305 300 296 292 292 292 294 296 298 299 298 295 292
325 333 339 339 334 326 322 322 322 321 320 321 324 324 326 327 324 323 330 332 324 321 323 323 321 320 317 313 311 308 305 302 297 294 291 291 291 291 292 293 294 293
318 319 324 329 333 332 330 328 325 323 323 322 324 325 325 327 328 328 333 339 334 327 328 327 324 322 319 314 311 308 305 303 300 298 294 292 290 288 287 288 289 290
322 321 322 325 330 330 328 327 326 327 329 330 332 333 332 334 335 332 334 341 339 331 332 332 328 326 324 320 317 313 308 305 302 300 299 297 294 292 290 289 288 287
331 333 337 339 342 344 344 343 344 345 347 348 348 349 348 347 347 343 341 345 343 336 335 334 330 330 328 325 323 319 314 310 306 304 303 301 300 296 295 296 294 291
332 338 346 352 356 360 360 359 359 358 358 358 356 357 356 353 352 349 345 347 347 342 340 339 336 334 333 330 328 325 322 319 315 313 311 309 305 301 301 302 299 295
334 347 360 7 7 5 2 358 357 355 353 352 351 353 353 350 348 346 344 344 343 341 340 339 338 337 336 334 333 330 328 326 324 321 318 315 311 308 310 310 304 300
29 15 8 4 356 353 351 349 348 346 345 343 343 345 347 345 343 341 339 339 338 337 337 336 335 335 335 334 333 332 331 330 329 326 323 319 315 314 317 316 310 307
61 1 352 347 342 343 343 343 343 342 340 339 339 340 340 339 337 334 333 334 334 335 335 335 335 335 334 334 333 333 333 332 331 328 325 322 317 317 321 320 315 313
330 338 339 333 332 335 335 338 340 339 338 337 336 336 335 335 335 333 333 336 338 340 341 340 340 338 336 336 335 335 334 333 332 329 327 324 320 319 322 323 319 316
311 322 325 322 321 323 328 334 336 334 333 332 331 332 333 333 335 336 338 340 341 341 341 341 341 341 340 339 337 336 335 334 333 332 329 328 326 323 324 325 323 320
300 308 311 311 311 316 323 328 329 329 329 329 330 331 331 332 335 336 337 338 338 338 339 337 338 339 339 339 339 338 338 337 336 335 333 331 329 328 327 327 327 325
292 299 301 302 305 311 318 322 324 325 326 327 329 331 332 334 335 335 334 334 334 338 340 340 339 339 340 341 342 342 342 342 341 340 337 335 333 331 330 330 329 329
Height
3109 3110 3110 3111 3110 3111 3111 3110 3110 3110 3111 3111 3111 3111 3111 3111 3111 3111 3111 3111 3112 3113 3112 3111 3112 3112 3112 3111 3111 3112 3113 3113 3114 3115 3115 3114 3114 3114 3115 3115 3116 3116
3108 3108 3109 3108 3108 3109 3109 3109 3109 3109 3109 3109 3110 3109 3109 3110 3109 3109 3109 3108 3109 3111 3111 3110 3111 3112 3112 3112 3111 3112 3112 3112 3113 3113 3113 3113 3112 3112 3112 3112 3112 3112
3106 3107 3107 3107 3107 3107 3107 3107 3108 3108 3108 3108 3108 3108 3107 3108 3108 3107 3108 3107 3105 3108 3110 3110 3110 3110 3111 3111 3111 3111 3111 3111 3112 3111 3111 3111 3111 3110 3110 3110 3110 3110
3106 3105 3105 3106 3106 3106 3106 3106 3107 3107 3106 3106 3107 3107 3107 3107 3107 3106 3106 3105 3104 3105 3107 3108 3108 3109 3108 3109 3109 3110 3109 3109 3109 3109 3109 3109 3108 3108 3108 3107 3107 3107
3105 3105 3105 3105 3105 3105 3105 3105 3106 3105 3105 3105 3106 3106 3106 3106 3105 3105 3106 3105 3104 3105 3106 3106 3107 3107 3107 3107 3107 3108 3107 3107 3107 3107 3106 3106 3106 3105 3105 3104 3104 3104
3106 3105 3104 3104 3104 3104 3104 3104 3104 3104 3104 3104 3105 3105 3105 3105 3104 3104 3105 3105 3105 3104 3104 3105 3105 3105 3105 3105 3105 3105 3105 3105 3105 3104 3104 3104 3103 3103 3103 3102 3101 3102
3105 3105 3104 3104 3103 3103 3103 3103 3103 3103 3103 3103 3104 3104 3104 3103 3103 3103 3103 3103 3104 3104 3103 3103 3104 3104 3104 3104 3103 3103 3103 3103 3102 3101 3101 3101 3101 3101 3100 3100 3100 3100
3105 3105 3104 3104 3103 3103 3103 3103 3103 3102 3102 3102 3102 3103 3102 3102 3102 3102 3102 3102 3102 3102 3102 3102 3102 3102 3102 3102 3102 3101 3101 3101 3100 3100 3100 3100 3099 3099 3099 3099 3098 3098
3105 3104 3104 3103 3103 3103 3102 3102 3102 3102 3102 3101 3101 3101 3101 3101 3101 3101 3101 3100 3101 3101 3100 3100 3100 3100 3100 3100 3100 3100 3100 3100 3099 3099 3099 3098 3097 3097 3097 3097 3097 3096
3104 3103 3103 3103 3102 3102 3102 3102 3101 3101 3101 3100 3100 3100 3100 3099 3099 3099 3099 3099 3099 3099 3099 3099 3098 3098 3098 3098 3098 3098 3098 3098 3098 3097 3097 3096 3096 3095 3095 3095 3095 3095
3104 3103 3103 3102 3102 3102 3101 3101 3100 3100 3099 3099 3098 3098 3099 3098 3098 3098 3098 3098 3097 3097 3097 3097 3097 3096 3096 3096 3096 3096 3096 3096 3096 3095 3095 3094 3094 3093 3093 3093 3093 3093
3103 3103 3103 3102 3102 3101 3101 3100 3100 3099 3099 3098 3097 3097 3097 3097 3097 3097 3097 3096 3096 3095 3095 3095 3095 3094 3094 3094 3094 3094 3094 3094 3094 3093 3093 3092 3092 3092 3091 3091 3091 3091
3103 3102 3102 3102 3101 3101 3100 3100 3099 3099 3098 3097 3097 3096 3096 3096 3096 3096 3096 3095 3095 3094 3094 3093 3093 3093 3092 3092 3092 3092 3092 3092 3092 3092 3091 3090 3090 3090 3089 3089 3089 3089
3102 3102 3101 3101 3101 3100 3100 3099 3099 3098 3098 3097 3097 3096 3096 3096 3095 3095 3095 3095 3094 3093 3093 3092 3092 3091 3091 3090 3090 3090 3089 3089 3089 3089 3089 3089 3088 3088 3087 3086 3086 3086
3102 3102 3101 3101 3100 3100 3099 3099 3099 3098 3098 3097 3097 3096 3096 3095 3095 3094 3094 3094 3092 3091 3091 3091 3090 3090 3090 3089 3089 3088 3088 3087 3087 3087 3087 3087 3086 3086 3085 3084 3083 3084
3102 3101 3101 3101 3100 3100 3099 3099 3098 3098 3098 3097 3097 3096 3096 3095 3094 3093 3093 3093 3091 3090 3090 3089 3089 3088 3088 3088 3087 3087 3086 3086 3085 3085 3084 3084 3084 3083 3083 3082 3081 3081
3101 3101 3101 3101 3100 3100 3099 3099 3098 3098 3097 3097 3096 3096 3095 3094 3093 3092 3092 3091 3091 3089 3089 3088 3088 3087 3086 3086 3085 3085 3084 3084 3083 3083 3082 3082 3081 3081 3081 3081 3079 3078
3101 3101 3100 3100 3100 3099 3099 3098 3098 3097 3097 3096 3096 3095 3094 3093 3093 3091 3091 3091 3090 3089 3088 3087 3086 3086 3085 3085 3084 3083 3082 3082 3081 3081 3080 3079 3078 3077 3078 3079 3077 3075
3100 3100 3100 3100 3099 3099 3098 3098 3098 3097 3096 3096 3095 3094 3093 3093 3092 3091 3090 3089 3089 3088 3087 3086 3085 3085 3084 3083 3083 3082 3081 3080 3079 3078 3078 3077 3076 3074 3075 3076 3075 3073
3100 3100 3100 3100 3099 3099 3098 3098 3097 3096 3096 3095 3094 3094 3093 3092 3091 3090 3089 3088 3088 3087 3086 3085 3084 3083 3082 3082 3081 3080 3079 3078 3078 3077 3075 3074 3073 3072 3072 3073 3071 3070
3100 3100 3100 3099 3099 3098 3098 3097 3097 3096 3095 3094 3094 3093 3092 3091 3090 3089 3088 3087 3087 3086 3085 3084 3083 3082 3081 3080 3079 3078 3077 3076 3075 3074 3073 3072 3070 3069 3070 3069 3068 3067
3099 3099 3099 3099 3098 3098 3097 3097 3096 3095 3095 3094 3093 3092 3091 3091 3089 3088 3087 3086 3086 3085 3084 3083 3082 3081 3080 3079 3078 3077 3076 3075 3074 3072 3071 3070 3068 3067 3068 3067 3065 3064
3099 3099 3099 3098 3098 3097 3097 3096 3095 3095 3094 3093 3092 3091 3090 3089 3088 3087 3086 3085 3084 3084 3083 3082 3081 3080 3079 3078 3077 3075 3074 3073 3072 3071 3069 3068 3066 3065 3065 3065 3063 3061
3098 3098 3098 3097 3097 3096 3096 3095 3095 3094 3093 3092 3091 3090 3089 3088 3087 3086 3084 3083 3083 3082 3081 3080 3080 3079 3078 3077 3075 3074 3073 3072 3070 3069 3068 3066 3064 3062 3062 3062 3061 3059
3097 3097 3097 3096 3096 3096 3095 3095 3094 3093 3092 3091 3090 3089 3088 3087 3086 3085 3084 3083 3082 3081 3080 3079 3078 3077 3076 3075 3074 3073 3072 3070 3069 3068 3066 3065 3063 3061 3059 3058 3058 3057
3096 3096 3096 3096 3095 3095 3094 3094 3093 3092 3092 3091 3090 3088 3087 3086 3085 3084 3083 3082 3081 3080 3079 3078 3076 3075 3074 3073 3072 3071 3070 3069 3068 3067 3065 3064 3062 3060 3058 3056 3055 3054